contact:dominique.lefevre@mio.osupytheas.fr, maurice.libes@osupytheas.fr, didier.mallarino@osupytheas.fr
Project:EMSO http://www.emso-fr.org/EMSO-France
Depth: 2436.0 m
Title:EMSO Ligure Ouest : Data MII capteur MICROCAT
DateTime_Computer,Latitude,Longitude,Temperature,Conductivity,Pressure,DateTime_Instrument
DateTime_Computer,Latitude,Longitude,degC,S m-1,dbar,DateTime_Instrument
2023-05-24T00:00:49Z,42.805,6.029,13.3040,4.60132,2470.787,2023-5-24T02:03:02Z
2023-05-24T00:03:52Z,42.805,6.029,13.3051,4.60112,2470.824,2023-5-24T02:06:05Z
2023-05-24T00:06:55Z,42.805,6.029,13.3041,4.60127,2470.8,2023-5-24T02:09:08Z
2023-05-24T00:09:59Z,42.805,6.029,13.3046,4.60114,2470.81,2023-5-24T02:12:11Z
2023-05-24T00:13:02Z,42.805,6.029,13.3046,4.60107,2470.81,2023-5-24T02:15:14Z
2023-05-24T00:16:05Z,42.805,6.029,13.3036,4.60137,2470.777,2023-5-24T02:18:17Z
2023-05-24T00:19:08Z,42.805,6.029,13.3045,4.60144,2470.74,2023-5-24T02:21:20Z
2023-05-24T00:22:11Z,42.805,6.029,13.3039,4.60109,2470.787,2023-5-24T02:24:23Z
2023-05-24T00:25:14Z,42.805,6.029,13.3051,4.60125,2470.8,2023-5-24T02:27:26Z
2023-05-24T00:28:17Z,42.805,6.029,13.3034,4.60112,2470.787,2023-5-24T02:30:29Z
2023-05-24T00:31:20Z,42.805,6.029,13.3039,4.60110,2470.8,2023-5-24T02:33:32Z
2023-05-24T00:34:23Z,42.805,6.029,13.3041,4.60107,2470.763,2023-5-24T02:36:35Z
2023-05-24T00:37:26Z,42.805,6.029,13.3043,4.60117,2470.787,2023-5-24T02:39:38Z
2023-05-24T00:40:29Z,42.805,6.029,13.3039,4.60125,2470.754,2023-5-24T02:42:42Z
2023-05-24T00:43:32Z,42.805,6.029,13.3036,4.60126,2470.787,2023-5-24T02:45:45Z
2023-05-24T00:46:35Z,42.805,6.029,13.3037,4.60112,2470.824,2023-5-24T02:48:48Z
2023-05-24T00:49:39Z,42.805,6.029,13.3040,4.60122,2470.754,2023-5-24T02:51:51Z
2023-05-24T00:52:42Z,42.805,6.029,13.3039,4.60138,2470.74,2023-5-24T02:54:54Z
2023-05-24T00:55:45Z,42.805,6.029,13.3041,4.60132,2470.74,2023-5-24T02:57:57Z
2023-05-24T00:58:48Z,42.805,6.029,13.3043,4.60113,2470.777,2023-5-24T03:01:00Z
2023-05-24T01:01:51Z,42.805,6.029,13.3039,4.60123,2470.74,2023-5-24T03:04:03Z
2023-05-24T01:04:54Z,42.805,6.029,13.3045,4.60132,2470.754,2023-5-24T03:07:06Z
2023-05-24T01:07:57Z,42.805,6.029,13.3036,4.60117,2470.763,2023-5-24T03:10:09Z
2023-05-24T01:11:00Z,42.805,6.029,13.3038,4.60123,2470.754,2023-5-24T03:13:12Z
2023-05-24T01:14:03Z,42.805,6.029,13.3034,4.60111,2470.754,2023-5-24T03:16:15Z
2023-05-24T01:17:06Z,42.805,6.029,13.3035,4.60107,2470.763,2023-5-24T03:19:18Z
2023-05-24T01:20:09Z,42.805,6.029,13.3037,4.60110,2470.763,2023-5-24T03:22:22Z
2023-05-24T01:23:12Z,42.805,6.029,13.3044,4.60103,2470.717,2023-5-24T03:25:25Z
2023-05-24T01:26:15Z,42.805,6.029,13.3029,4.60085,2470.763,2023-5-24T03:28:28Z
2023-05-24T01:29:19Z,42.805,6.029,13.3036,4.60127,2470.763,2023-5-24T03:31:31Z
2023-05-24T01:32:22Z,42.805,6.029,13.3046,4.60124,2470.777,2023-5-24T03:34:34Z
2023-05-24T01:35:25Z,42.805,6.029,13.3044,4.60131,2470.74,2023-5-24T03:37:37Z
2023-05-24T01:38:28Z,42.805,6.029,13.3039,4.60111,2470.763,2023-5-24T03:40:40Z
2023-05-24T01:41:31Z,42.805,6.029,13.3040,4.60121,2470.763,2023-5-24T03:43:43Z
2023-05-24T01:44:34Z,42.805,6.029,13.3040,4.60124,2470.754,2023-5-24T03:46:46Z
2023-05-24T01:47:37Z,42.805,6.029,13.3033,4.60123,2470.717,2023-5-24T03:49:49Z
2023-05-24T01:50:40Z,42.805,6.029,13.3034,4.60117,2470.74,2023-5-24T03:52:52Z
2023-05-24T01:53:43Z,42.805,6.029,13.3035,4.60119,2470.763,2023-5-24T03:55:55Z
2023-05-24T01:56:46Z,42.805,6.029,13.3038,4.60114,2470.74,2023-5-24T03:58:58Z
2023-05-24T01:59:49Z,42.805,6.029,13.3033,4.60126,2470.754,2023-5-24T04:02:02Z
2023-05-24T02:02:52Z,42.805,6.029,13.3055,4.60119,2470.74,2023-5-24T04:05:05Z
2023-05-24T02:05:55Z,42.805,6.029,13.3034,4.60104,2470.777,2023-5-24T04:08:08Z
2023-05-24T02:08:59Z,42.805,6.029,13.3034,4.60120,2470.754,2023-5-24T04:11:11Z
2023-05-24T02:12:02Z,42.805,6.029,13.3035,4.60102,2470.763,2023-5-24T04:14:14Z
2023-05-24T02:15:05Z,42.805,6.029,13.3038,4.60127,2470.74,2023-5-24T04:17:17Z
2023-05-24T02:18:08Z,42.805,6.029,13.3043,4.60124,2470.717,2023-5-24T04:20:20Z
2023-05-24T02:21:11Z,42.805,6.029,13.3036,4.60124,2470.74,2023-5-24T04:23:23Z
2023-05-24T02:24:14Z,42.805,6.029,13.3032,4.60113,2470.707,2023-5-24T04:26:26Z
2023-05-24T02:27:17Z,42.805,6.029,13.3038,4.60110,2470.717,2023-5-24T04:29:29Z
2023-05-24T02:30:20Z,42.805,6.029,13.3043,4.60121,2470.74,2023-5-24T04:32:32Z
2023-05-24T02:33:23Z,42.805,6.029,13.3042,4.60117,2470.754,2023-5-24T04:35:35Z
2023-05-24T02:36:26Z,42.805,6.029,13.3034,4.60117,2470.754,2023-5-24T04:38:38Z
2023-05-24T02:39:29Z,42.805,6.029,13.3035,4.60131,2470.707,2023-5-24T04:41:42Z
2023-05-24T02:42:32Z,42.805,6.029,13.3036,4.60123,2470.693,2023-5-24T04:44:45Z
2023-05-24T02:45:35Z,42.805,6.029,13.3039,4.60109,2470.717,2023-5-24T04:47:48Z
2023-05-24T02:48:39Z,42.805,6.029,13.3036,4.60112,2470.693,2023-5-24T04:50:51Z
2023-05-24T02:51:42Z,42.805,6.029,13.3035,4.60124,2470.693,2023-5-24T04:53:54Z
2023-05-24T02:54:45Z,42.805,6.029,13.3036,4.60118,2470.717,2023-5-24T04:56:57Z
2023-05-24T02:57:48Z,42.805,6.029,13.3035,4.60123,2470.684,2023-5-24T05:00:00Z
2023-05-24T03:00:51Z,42.805,6.029,13.3041,4.60122,2470.707,2023-5-24T05:03:03Z
2023-05-24T03:03:54Z,42.805,6.029,13.3039,4.60127,2470.73,2023-5-24T05:06:06Z
2023-05-24T03:06:57Z,42.805,6.029,13.3039,4.60121,2470.73,2023-5-24T05:09:09Z
2023-05-24T03:10:00Z,42.805,6.029,13.3033,4.60117,2470.73,2023-5-24T05:12:12Z
2023-05-24T03:13:03Z,42.805,6.029,13.3039,4.60115,2470.717,2023-5-24T05:15:15Z
2023-05-24T03:16:06Z,42.805,6.029,13.3034,4.60109,2470.717,2023-5-24T05:18:19Z
2023-05-24T03:19:09Z,42.805,6.029,13.3044,4.60127,2470.693,2023-5-24T05:21:22Z
2023-05-24T03:22:12Z,42.805,6.029,13.3034,4.60125,2470.707,2023-5-24T05:24:25Z
2023-05-24T03:25:15Z,42.805,6.029,13.3037,4.60133,2470.693,2023-5-24T05:27:28Z
2023-05-24T03:28:19Z,42.805,6.029,13.3040,4.60144,2470.73,2023-5-24T05:30:31Z
2023-05-24T03:31:22Z,42.805,6.029,13.3048,4.60125,2470.717,2023-5-24T05:33:34Z
2023-05-24T03:34:25Z,42.805,6.029,13.3041,4.60125,2470.693,2023-5-24T05:36:37Z
2023-05-24T03:37:28Z,42.805,6.029,13.3041,4.60160,2470.693,2023-5-24T05:39:40Z
2023-05-24T03:40:31Z,42.805,6.029,13.3038,4.60122,2470.707,2023-5-24T05:42:43Z
2023-05-24T03:43:34Z,42.805,6.029,13.3048,4.60141,2470.717,2023-5-24T05:45:46Z
2023-05-24T03:46:37Z,42.805,6.029,13.3034,4.60124,2470.693,2023-5-24T05:48:49Z
2023-05-24T03:49:40Z,42.805,6.029,13.3044,4.60131,2470.717,2023-5-24T05:51:52Z
2023-05-24T03:52:43Z,42.805,6.029,13.3041,4.60133,2470.67,2023-5-24T05:54:55Z
2023-05-24T03:55:46Z,42.805,6.029,13.3035,4.60119,2470.717,2023-5-24T05:57:59Z
2023-05-24T03:58:49Z,42.805,6.029,13.3040,4.60117,2470.693,2023-5-24T06:01:02Z
2023-05-24T04:01:52Z,42.805,6.029,13.3039,4.60150,2470.707,2023-5-24T06:04:05Z
2023-05-24T04:04:56Z,42.805,6.029,13.3039,4.60137,2470.693,2023-5-24T06:07:08Z
2023-05-24T04:07:59Z,42.805,6.029,13.3036,4.60125,2470.717,2023-5-24T06:10:11Z
2023-05-24T04:11:02Z,42.805,6.029,13.3039,4.60121,2470.67,2023-5-24T06:13:14Z
2023-05-24T04:14:05Z,42.805,6.029,13.3035,4.60111,2470.717,2023-5-24T06:16:17Z
2023-05-24T04:17:08Z,42.805,6.029,13.3030,4.60125,2470.707,2023-5-24T06:19:20Z
2023-05-24T04:20:11Z,42.805,6.029,13.3037,4.60122,2470.707,2023-5-24T06:22:23Z
2023-05-24T04:23:14Z,42.805,6.029,13.3037,4.60146,2470.684,2023-5-24T06:25:26Z
2023-05-24T04:26:17Z,42.805,6.029,13.3041,4.60137,2470.693,2023-5-24T06:28:29Z
2023-05-24T04:29:20Z,42.805,6.029,13.3038,4.60131,2470.707,2023-5-24T06:31:32Z
2023-05-24T04:32:23Z,42.805,6.029,13.3042,4.60132,2470.707,2023-5-24T06:34:36Z
2023-05-24T04:35:26Z,42.805,6.029,13.3047,4.60125,2470.67,2023-5-24T06:37:39Z
2023-05-24T04:38:29Z,42.805,6.029,13.3041,4.60128,2470.707,2023-5-24T06:40:42Z
2023-05-24T04:41:32Z,42.805,6.029,13.3046,4.60146,2470.717,2023-5-24T06:43:45Z
2023-05-24T04:44:36Z,42.805,6.029,13.3036,4.60137,2470.67,2023-5-24T06:46:48Z
2023-05-24T04:47:39Z,42.805,6.029,13.3039,4.60116,2470.661,2023-5-24T06:49:51Z
2023-05-24T04:50:42Z,42.805,6.029,13.3041,4.60108,2470.646,2023-5-24T06:52:54Z
2023-05-24T04:53:45Z,42.805,6.029,13.3041,4.60107,2470.67,2023-5-24T06:55:57Z
2023-05-24T04:56:48Z,42.805,6.029,13.3033,4.60112,2470.67,2023-5-24T06:59:00Z
2023-05-24T04:59:51Z,42.805,6.029,13.3039,4.60113,2470.707,2023-5-24T07:02:03Z
2023-05-24T05:02:54Z,42.805,6.029,13.3032,4.60119,2470.684,2023-5-24T07:05:06Z
2023-05-24T05:05:57Z,42.805,6.029,13.3035,4.60117,2470.693,2023-5-24T07:08:09Z
2023-05-24T05:09:00Z,42.805,6.029,13.3035,4.60119,2470.693,2023-5-24T07:11:12Z
2023-05-24T05:12:03Z,42.805,6.029,13.3032,4.60119,2470.684,2023-5-24T07:14:15Z
2023-05-24T05:15:06Z,42.805,6.029,13.3029,4.60137,2470.684,2023-5-24T07:17:19Z
2023-05-24T05:18:09Z,42.805,6.029,13.3041,4.60119,2470.693,2023-5-24T07:20:22Z
2023-05-24T05:21:13Z,42.805,6.029,13.3036,4.60132,2470.693,2023-5-24T07:23:25Z
2023-05-24T05:24:16Z,42.805,6.029,13.3034,4.60119,2470.661,2023-5-24T07:26:28Z
2023-05-24T05:27:19Z,42.805,6.029,13.3039,4.60122,2470.646,2023-5-24T07:29:31Z
2023-05-24T05:30:22Z,42.805,6.029,13.3032,4.60112,2470.67,2023-5-24T07:32:34Z
2023-05-24T05:33:25Z,42.805,6.029,13.3030,4.60112,2470.693,2023-5-24T07:35:37Z
2023-05-24T05:36:28Z,42.805,6.029,13.3038,4.60117,2470.684,2023-5-24T07:38:40Z
2023-05-24T05:39:31Z,42.805,6.029,13.3033,4.60115,2470.67,2023-5-24T07:41:43Z
2023-05-24T05:42:34Z,42.805,6.029,13.3037,4.60123,2470.707,2023-5-24T07:44:46Z
2023-05-24T05:45:37Z,42.805,6.029,13.3041,4.60141,2470.67,2023-5-24T07:47:49Z
2023-05-24T05:48:40Z,42.805,6.029,13.3032,4.60114,2470.67,2023-5-24T07:50:52Z
2023-05-24T05:51:43Z,42.805,6.029,13.3029,4.60108,2470.684,2023-5-24T07:53:56Z
2023-05-24T05:54:46Z,42.805,6.029,13.3029,4.60119,2470.693,2023-5-24T07:56:59Z
2023-05-24T05:57:49Z,42.805,6.029,13.3046,4.60122,2470.693,2023-5-24T08:00:02Z
2023-05-24T06:00:53Z,42.805,6.029,13.3033,4.60144,2470.707,2023-5-24T08:03:05Z
2023-05-24T06:03:56Z,42.805,6.029,13.3041,4.60117,2470.693,2023-5-24T08:06:08Z
2023-05-24T06:06:59Z,42.805,6.029,13.3043,4.60129,2470.684,2023-5-24T08:09:11Z
2023-05-24T06:10:02Z,42.805,6.029,13.3032,4.60122,2470.707,2023-5-24T08:12:14Z
2023-05-24T06:13:05Z,42.805,6.029,13.3039,4.60133,2470.646,2023-5-24T08:15:17Z
2023-05-24T06:16:08Z,42.805,6.029,13.3031,4.60120,2470.67,2023-5-24T08:18:20Z
2023-05-24T06:19:11Z,42.805,6.029,13.3041,4.60124,2470.684,2023-5-24T08:21:23Z
2023-05-24T06:22:14Z,42.805,6.029,13.3033,4.60130,2470.67,2023-5-24T08:24:26Z
2023-05-24T06:25:17Z,42.805,6.029,13.3038,4.60127,2470.703,2023-5-24T08:27:29Z
2023-05-24T06:28:20Z,42.805,6.029,13.3037,4.60114,2470.684,2023-5-24T08:30:32Z
2023-05-24T06:31:23Z,42.805,6.029,13.3033,4.60130,2470.717,2023-5-24T08:33:35Z
2023-05-24T06:34:26Z,42.805,6.029,13.3039,4.60125,2470.67,2023-5-24T08:36:38Z
2023-05-24T06:37:29Z,42.805,6.029,13.3039,4.60125,2470.67,2023-5-24T08:39:41Z
2023-05-24T06:40:32Z,42.805,6.029,13.3034,4.60109,2470.717,2023-5-24T08:42:44Z
2023-05-24T06:43:35Z,42.805,6.029,13.3032,4.60116,2470.707,2023-5-24T08:45:48Z
2023-05-24T06:46:38Z,42.805,6.029,13.3032,4.60119,2470.693,2023-5-24T08:48:51Z
2023-05-24T06:49:41Z,42.805,6.029,13.3031,4.60115,2470.67,2023-5-24T08:51:54Z
2023-05-24T06:52:45Z,42.805,6.029,13.3036,4.60131,2470.707,2023-5-24T08:54:57Z
2023-05-24T06:55:48Z,42.805,6.029,13.3029,4.60113,2470.717,2023-5-24T08:58:00Z
2023-05-24T06:58:51Z,42.805,6.029,13.3030,4.60097,2470.693,2023-5-24T09:01:03Z
2023-05-24T07:01:54Z,42.805,6.029,13.3026,4.60096,2470.717,2023-5-24T09:04:06Z
2023-05-24T07:04:57Z,42.805,6.029,13.3032,4.60102,2470.67,2023-5-24T09:07:09Z
2023-05-24T07:08:00Z,42.805,6.029,13.3029,4.60123,2470.693,2023-5-24T09:10:12Z
2023-05-24T07:11:03Z,42.805,6.029,13.3028,4.60119,2470.707,2023-5-24T09:13:15Z
2023-05-24T07:14:06Z,42.805,6.029,13.3029,4.60103,2470.693,2023-5-24T09:16:18Z
2023-05-24T07:17:09Z,42.805,6.029,13.3034,4.60132,2470.693,2023-5-24T09:19:21Z
2023-05-24T07:20:12Z,42.805,6.029,13.3033,4.60147,2470.684,2023-5-24T09:22:25Z
2023-05-24T07:23:15Z,42.805,6.029,13.3031,4.60117,2470.693,2023-5-24T09:25:28Z
2023-05-24T07:26:18Z,42.805,6.029,13.3034,4.60135,2470.73,2023-5-24T09:28:31Z
2023-05-24T07:29:21Z,42.805,6.029,13.3048,4.60131,2470.717,2023-5-24T09:31:34Z
2023-05-24T07:32:25Z,42.805,6.029,13.3028,4.60131,2470.693,2023-5-24T09:34:37Z
2023-05-24T07:35:28Z,42.805,6.029,13.3029,4.60127,2470.693,2023-5-24T09:37:40Z
2023-05-24T07:38:31Z,42.805,6.029,13.3036,4.60125,2470.693,2023-5-24T09:40:43Z
2023-05-24T07:41:34Z,42.805,6.029,13.3032,4.60128,2470.67,2023-5-24T09:43:46Z
2023-05-24T07:44:37Z,42.805,6.029,13.3043,4.60131,2470.693,2023-5-24T09:46:49Z
2023-05-24T07:47:40Z,42.805,6.029,13.3031,4.60135,2470.717,2023-5-24T09:49:52Z
2023-05-24T07:50:43Z,42.805,6.029,13.3032,4.60113,2470.717,2023-5-24T09:52:55Z
2023-05-24T07:53:46Z,42.805,6.029,13.3029,4.60099,2470.73,2023-5-24T09:55:58Z
2023-05-24T07:56:49Z,42.805,6.029,13.3021,4.60104,2470.707,2023-5-24T09:59:01Z
2023-05-24T07:59:52Z,42.805,6.029,13.3039,4.60115,2470.73,2023-5-24T10:02:05Z
2023-05-24T08:02:55Z,42.805,6.029,13.3046,4.60150,2470.717,2023-5-24T10:05:08Z
2023-05-24T08:05:58Z,42.805,6.029,13.3024,4.60119,2470.703,2023-5-24T10:08:11Z
2023-05-24T08:09:02Z,42.805,6.029,13.3051,4.60147,2470.717,2023-5-24T10:11:14Z
2023-05-24T08:12:05Z,42.805,6.029,13.3041,4.60110,2470.717,2023-5-24T10:14:17Z
2023-05-24T08:15:08Z,42.805,6.029,13.3037,4.60140,2470.717,2023-5-24T10:17:20Z
2023-05-24T08:18:11Z,42.805,6.029,13.3029,4.60117,2470.717,2023-5-24T10:20:23Z
2023-05-24T08:21:14Z,42.805,6.029,13.3036,4.60119,2470.707,2023-5-24T10:23:26Z
2023-05-24T08:24:17Z,42.805,6.029,13.3031,4.60107,2470.73,2023-5-24T10:26:29Z
2023-05-24T08:27:20Z,42.805,6.029,13.3029,4.60114,2470.754,2023-5-24T10:29:32Z
2023-05-24T08:30:22Z,42.805,6.029,13.3023,4.60099,2470.74,2023-5-24T10:32:34Z
2023-05-24T08:33:25Z,42.805,6.029,13.3028,4.60111,2470.73,2023-5-24T10:35:37Z
2023-05-24T08:36:28Z,42.805,6.029,13.3026,4.60116,2470.717,2023-5-24T10:38:40Z
2023-05-24T08:39:31Z,42.805,6.029,13.3033,4.60135,2470.74,2023-5-24T10:41:43Z
2023-05-24T08:42:34Z,42.805,6.029,13.3031,4.60123,2470.717,2023-5-24T10:44:46Z
2023-05-24T08:45:37Z,42.805,6.029,13.3030,4.60127,2470.717,2023-5-24T10:47:49Z
2023-05-24T08:48:40Z,42.805,6.029,13.3034,4.60120,2470.777,2023-5-24T10:50:52Z
2023-05-24T08:51:43Z,42.805,6.029,13.3029,4.60117,2470.74,2023-5-24T10:53:55Z
2023-05-24T08:54:46Z,42.805,6.029,13.3034,4.60129,2470.73,2023-5-24T10:56:59Z
2023-05-24T08:57:49Z,42.805,6.029,13.3031,4.60117,2470.73,2023-5-24T11:00:02Z
2023-05-24T09:00:52Z,42.805,6.029,13.3033,4.60154,2470.73,2023-5-24T11:03:05Z
2023-05-24T09:03:56Z,42.805,6.029,13.3026,4.60126,2470.73,2023-5-24T11:06:08Z
2023-05-24T09:06:59Z,42.805,6.029,13.3042,4.60146,2470.73,2023-5-24T11:09:11Z
2023-05-24T09:10:02Z,42.805,6.029,13.3055,4.60158,2470.73,2023-5-24T11:12:14Z
2023-05-24T09:13:05Z,42.805,6.029,13.3033,4.60153,2470.717,2023-5-24T11:15:17Z
2023-05-24T09:16:08Z,42.805,6.029,13.3044,4.60152,2470.73,2023-5-24T11:18:20Z
2023-05-24T09:19:11Z,42.805,6.029,13.3031,4.60143,2470.717,2023-5-24T11:21:23Z
2023-05-24T09:22:14Z,42.805,6.029,13.3027,4.60116,2470.74,2023-5-24T11:24:26Z
2023-05-24T09:25:17Z,42.805,6.029,13.3031,4.60123,2470.717,2023-5-24T11:27:29Z
2023-05-24T09:28:20Z,42.805,6.029,13.3026,4.60124,2470.74,2023-5-24T11:30:32Z
2023-05-24T09:31:23Z,42.805,6.029,13.3030,4.60154,2470.754,2023-5-24T11:33:35Z
2023-05-24T09:34:26Z,42.805,6.029,13.3026,4.60123,2470.74,2023-5-24T11:36:39Z
2023-05-24T09:37:29Z,42.805,6.029,13.3023,4.60115,2470.73,2023-5-24T11:39:42Z
2023-05-24T09:40:33Z,42.805,6.029,13.3028,4.60130,2470.74,2023-5-24T11:42:45Z
2023-05-24T09:43:36Z,42.805,6.029,13.3029,4.60129,2470.73,2023-5-24T11:45:48Z
2023-05-24T09:46:39Z,42.805,6.029,13.3036,4.60136,2470.717,2023-5-24T11:48:51Z
2023-05-24T09:49:42Z,42.805,6.029,13.3038,4.60142,2470.754,2023-5-24T11:51:54Z
2023-05-24T09:52:45Z,42.805,6.029,13.3045,4.60147,2470.717,2023-5-24T11:54:57Z
2023-05-24T09:55:48Z,42.805,6.029,13.3037,4.60141,2470.763,2023-5-24T11:58:00Z
2023-05-24T09:58:51Z,42.805,6.029,13.3036,4.60125,2470.73,2023-5-24T12:01:03Z
2023-05-24T10:01:54Z,42.805,6.029,13.3038,4.60147,2470.754,2023-5-24T12:04:06Z
2023-05-24T10:04:57Z,42.805,6.029,13.3039,4.60154,2470.74,2023-5-24T12:07:09Z
2023-05-24T10:08:00Z,42.805,6.029,13.3032,4.60162,2470.707,2023-5-24T12:10:13Z
2023-05-24T10:11:03Z,42.805,6.029,13.3034,4.60135,2470.717,2023-5-24T12:13:16Z
2023-05-24T10:14:06Z,42.805,6.029,13.3036,4.60132,2470.73,2023-5-24T12:16:19Z
2023-05-24T10:17:10Z,42.805,6.029,13.3036,4.60126,2470.754,2023-5-24T12:19:22Z
2023-05-24T10:20:13Z,42.805,6.029,13.3047,4.60144,2470.754,2023-5-24T12:22:25Z
2023-05-24T10:23:16Z,42.805,6.029,13.3034,4.60136,2470.707,2023-5-24T12:25:28Z
2023-05-24T10:26:19Z,42.805,6.029,13.3031,4.60142,2470.74,2023-5-24T12:28:31Z
2023-05-24T10:29:22Z,42.805,6.029,13.3041,4.60131,2470.693,2023-5-24T12:31:34Z
2023-05-24T10:32:25Z,42.805,6.029,13.3034,4.60134,2470.717,2023-5-24T12:34:37Z
2023-05-24T10:35:28Z,42.805,6.029,13.3033,4.60125,2470.73,2023-5-24T12:37:40Z
2023-05-24T10:38:31Z,42.805,6.029,13.3032,4.60127,2470.74,2023-5-24T12:40:43Z
2023-05-24T10:41:34Z,42.805,6.029,13.3027,4.60155,2470.717,2023-5-24T12:43:46Z
2023-05-24T10:44:37Z,42.805,6.029,13.3038,4.60137,2470.717,2023-5-24T12:46:50Z
2023-05-24T10:47:40Z,42.805,6.029,13.3028,4.60122,2470.73,2023-5-24T12:49:53Z
2023-05-24T10:50:43Z,42.805,6.029,13.3058,4.60137,2470.67,2023-5-24T12:52:56Z
2023-05-24T10:53:47Z,42.805,6.029,13.3028,4.60149,2470.717,2023-5-24T12:55:59Z
2023-05-24T10:56:50Z,42.805,6.029,13.3036,4.60135,2470.73,2023-5-24T12:59:02Z
2023-05-24T10:59:53Z,42.805,6.029,13.3041,4.60149,2470.707,2023-5-24T13:02:05Z
2023-05-24T11:02:56Z,42.805,6.029,13.3044,4.60141,2470.73,2023-5-24T13:05:08Z
2023-05-24T11:05:59Z,42.805,6.029,13.3041,4.60137,2470.693,2023-5-24T13:08:11Z
2023-05-24T11:09:02Z,42.805,6.029,13.3029,4.60122,2470.693,2023-5-24T13:11:14Z
2023-05-24T11:12:05Z,42.805,6.029,13.3034,4.60131,2470.73,2023-5-24T13:14:17Z
2023-05-24T11:15:08Z,42.805,6.029,13.3028,4.60135,2470.717,2023-5-24T13:17:20Z
2023-05-24T11:18:11Z,42.805,6.029,13.3029,4.60131,2470.707,2023-5-24T13:20:23Z
2023-05-24T11:21:14Z,42.805,6.029,13.3034,4.60139,2470.73,2023-5-24T13:23:27Z
2023-05-24T11:24:17Z,42.805,6.029,13.3030,4.60116,2470.693,2023-5-24T13:26:30Z
2023-05-24T11:27:20Z,42.805,6.029,13.3030,4.60135,2470.693,2023-5-24T13:29:33Z
2023-05-24T11:30:24Z,42.805,6.029,13.3036,4.60128,2470.67,2023-5-24T13:32:36Z
2023-05-24T11:33:27Z,42.805,6.029,13.3031,4.60137,2470.693,2023-5-24T13:35:39Z
2023-05-24T11:36:30Z,42.805,6.029,13.3031,4.60126,2470.67,2023-5-24T13:38:42Z
2023-05-24T11:39:33Z,42.805,6.029,13.3034,4.60125,2470.73,2023-5-24T13:41:45Z
2023-05-24T11:42:36Z,42.805,6.029,13.3035,4.60120,2470.707,2023-5-24T13:44:48Z
2023-05-24T11:45:39Z,42.805,6.029,13.3024,4.60111,2470.693,2023-5-24T13:47:51Z
2023-05-24T11:48:42Z,42.805,6.029,13.3038,4.60121,2470.73,2023-5-24T13:50:54Z
2023-05-24T11:51:45Z,42.805,6.029,13.3037,4.60131,2470.707,2023-5-24T13:53:57Z
2023-05-24T11:54:48Z,42.805,6.029,13.3049,4.60134,2470.67,2023-5-24T13:57:00Z
2023-05-24T11:57:51Z,42.805,6.029,13.3025,4.60097,2470.693,2023-5-24T14:00:04Z
2023-05-24T12:00:54Z,42.805,6.029,13.3043,4.60134,2470.684,2023-5-24T14:03:07Z
2023-05-24T12:03:57Z,42.805,6.029,13.3032,4.60117,2470.707,2023-5-24T14:06:10Z
2023-05-24T12:07:01Z,42.805,6.029,13.3032,4.60112,2470.693,2023-5-24T14:09:13Z
2023-05-24T12:10:04Z,42.805,6.029,13.3039,4.60122,2470.707,2023-5-24T14:12:16Z
2023-05-24T12:13:07Z,42.805,6.029,13.3032,4.60110,2470.646,2023-5-24T14:15:19Z
2023-05-24T12:16:10Z,42.805,6.029,13.3046,4.60110,2470.67,2023-5-24T14:18:22Z
2023-05-24T12:19:13Z,42.805,6.029,13.3034,4.60129,2470.646,2023-5-24T14:21:25Z
2023-05-24T12:22:16Z,42.805,6.029,13.3036,4.60112,2470.707,2023-5-24T14:24:28Z
2023-05-24T12:25:19Z,42.805,6.029,13.3039,4.60125,2470.67,2023-5-24T14:27:31Z
2023-05-24T12:28:22Z,42.805,6.029,13.3031,4.60123,2470.693,2023-5-24T14:30:34Z
2023-05-24T12:31:25Z,42.805,6.029,13.3032,4.60104,2470.684,2023-5-24T14:33:37Z
2023-05-24T12:34:28Z,42.805,6.029,13.3023,4.60147,2470.707,2023-5-24T14:36:41Z
2023-05-24T12:37:31Z,42.805,6.029,13.3030,4.60137,2470.67,2023-5-24T14:39:44Z
2023-05-24T12:40:34Z,42.805,6.029,13.3029,4.60115,2470.684,2023-5-24T14:42:47Z
2023-05-24T12:43:38Z,42.805,6.029,13.3041,4.60116,2470.67,2023-5-24T14:45:50Z
2023-05-24T12:46:41Z,42.805,6.029,13.3032,4.60114,2470.646,2023-5-24T14:48:53Z
2023-05-24T12:49:44Z,42.805,6.029,13.3039,4.60126,2470.684,2023-5-24T14:51:56Z
2023-05-24T12:52:47Z,42.805,6.029,13.3034,4.60107,2470.693,2023-5-24T14:54:59Z
2023-05-24T12:55:50Z,42.805,6.029,13.3031,4.60109,2470.646,2023-5-24T14:58:02Z
2023-05-24T12:58:53Z,42.805,6.029,13.3030,4.60104,2470.684,2023-5-24T15:01:05Z
2023-05-24T13:01:56Z,42.805,6.029,13.3026,4.60114,2470.67,2023-5-24T15:04:08Z
2023-05-24T13:04:59Z,42.805,6.029,13.3026,4.60125,2470.633,2023-5-24T15:07:11Z
2023-05-24T13:08:02Z,42.805,6.029,13.3023,4.60120,2470.646,2023-5-24T15:10:14Z
2023-05-24T13:11:05Z,42.805,6.029,13.3025,4.60128,2470.646,2023-5-24T15:13:18Z
2023-05-24T13:14:08Z,42.805,6.029,13.3033,4.60123,2470.646,2023-5-24T15:16:21Z
2023-05-24T13:17:11Z,42.805,6.029,13.3031,4.60125,2470.646,2023-5-24T15:19:24Z
2023-05-24T13:20:15Z,42.805,6.029,13.3025,4.60106,2470.646,2023-5-24T15:22:27Z
2023-05-24T13:23:18Z,42.805,6.029,13.3031,4.60104,2470.67,2023-5-24T15:25:30Z
2023-05-24T13:26:21Z,42.805,6.029,13.3028,4.60111,2470.624,2023-5-24T15:28:33Z
2023-05-24T13:29:24Z,42.805,6.029,13.3031,4.60123,2470.661,2023-5-24T15:31:36Z
2023-05-24T13:32:27Z,42.805,6.029,13.3020,4.60114,2470.656,2023-5-24T15:34:39Z
2023-05-24T13:35:30Z,42.805,6.029,13.3027,4.60107,2470.684,2023-5-24T15:37:42Z
2023-05-24T13:38:33Z,42.805,6.029,13.3029,4.60097,2470.661,2023-5-24T15:40:45Z
2023-05-24T13:41:36Z,42.805,6.029,13.3026,4.60123,2470.624,2023-5-24T15:43:48Z
2023-05-24T13:44:39Z,42.805,6.029,13.3043,4.60107,2470.646,2023-5-24T15:46:52Z
2023-05-24T13:47:42Z,42.805,6.029,13.3030,4.60131,2470.624,2023-5-24T15:49:55Z
2023-05-24T13:50:45Z,42.805,6.029,13.3037,4.60127,2470.684,2023-5-24T15:52:58Z
2023-05-24T13:53:49Z,42.805,6.029,13.3024,4.60105,2470.661,2023-5-24T15:56:01Z
2023-05-24T13:56:52Z,42.805,6.029,13.3026,4.60114,2470.624,2023-5-24T15:59:04Z
2023-05-24T13:59:55Z,42.805,6.029,13.3031,4.60112,2470.646,2023-5-24T16:02:07Z
2023-05-24T14:02:58Z,42.805,6.029,13.3025,4.60114,2470.684,2023-5-24T16:05:10Z
2023-05-24T14:06:01Z,42.805,6.029,13.3030,4.60111,2470.661,2023-5-24T16:08:13Z
2023-05-24T14:09:04Z,42.805,6.029,13.3030,4.60121,2470.646,2023-5-24T16:11:16Z
2023-05-24T14:12:07Z,42.805,6.029,13.3036,4.60117,2470.624,2023-5-24T16:14:19Z
2023-05-24T14:15:10Z,42.805,6.029,13.3030,4.60108,2470.624,2023-5-24T16:17:22Z
2023-05-24T14:18:13Z,42.805,6.029,13.3029,4.60109,2470.6,2023-5-24T16:20:25Z
2023-05-24T14:21:16Z,42.805,6.029,13.3025,4.60096,2470.661,2023-5-24T16:23:29Z
2023-05-24T14:24:19Z,42.805,6.029,13.3028,4.60110,2470.6,2023-5-24T16:26:32Z
2023-05-24T14:27:22Z,42.805,6.029,13.3031,4.60113,2470.624,2023-5-24T16:29:35Z
2023-05-24T14:30:27Z,42.805,6.029,13.3032,4.60114,2470.661,2023-5-24T16:32:39Z
2023-05-24T14:33:30Z,42.805,6.029,13.3026,4.60092,2470.646,2023-5-24T16:35:42Z
2023-05-24T14:36:33Z,42.805,6.029,13.3026,4.60109,2470.624,2023-5-24T16:38:45Z
2023-05-24T14:39:36Z,42.805,6.029,13.3024,4.60092,2470.624,2023-5-24T16:41:48Z
2023-05-24T14:42:39Z,42.805,6.029,13.3031,4.60111,2470.624,2023-5-24T16:44:52Z
2023-05-24T14:45:42Z,42.805,6.029,13.3025,4.60104,2470.661,2023-5-24T16:47:55Z
2023-05-24T14:48:45Z,42.805,6.029,13.3035,4.60117,2470.6,2023-5-24T16:50:58Z
2023-05-24T14:51:48Z,42.805,6.029,13.3031,4.60110,2470.624,2023-5-24T16:54:01Z
2023-05-24T14:54:52Z,42.805,6.029,13.3029,4.60102,2470.624,2023-5-24T16:57:04Z
2023-05-24T14:57:55Z,42.805,6.029,13.3029,4.60107,2470.646,2023-5-24T17:00:07Z
2023-05-24T15:00:58Z,42.805,6.029,13.3028,4.60115,2470.6,2023-5-24T17:03:10Z
2023-05-24T15:04:01Z,42.805,6.029,13.3023,4.60100,2470.6,2023-5-24T17:06:13Z
2023-05-24T15:07:04Z,42.805,6.029,13.3029,4.60104,2470.6,2023-5-24T17:09:16Z
2023-05-24T15:10:07Z,42.805,6.029,13.3026,4.60129,2470.624,2023-5-24T17:12:19Z
2023-05-24T15:13:10Z,42.805,6.029,13.3029,4.60107,2470.637,2023-5-24T17:15:22Z